Palacios, TX

10:00 AM CDT on March 24, 2017 (GMT -0500)
Palacios Municipal

Weather History for KPSX - December, 2014

Change the Weather History Date:

Saturday, December 13, 2014

  Actual Average Record
Temperature  
Mean Temperature 64 °F -  
Max Temperature 73 °F 64 °F 79 °F (1950)
Min Temperature 54 °F 46 °F 22 °F (1989)
Degree Days  
Heating Degree Days 2    
Growing Degree Days 14 (Base 50)    
Moisture  
Dew Point 59 °F    
Average Humidity 88    
Maximum Humidity 100    
Minimum Humidity 62    
Precipitation  
Precipitation 0.00 in - - ()
Sea Level Pressure  
Sea Level Pressure 30.16 in    
Wind  
Wind Speed 6 mph (East)    
Max Wind Speed 13 mph    
Max Gust Speed 22 mph    
Visibility 6 miles    
Events Fog    
Averages and records for this station are not official NWS values.
T = Trace of Precipitation, MM = Missing Value Source: NWS Daily Summary

Daily Weather History Graph

Daily Weather History Graph

Search for Another Location

Airport or City:

Trip Planner

Search our weather history database for the weather conditions in past years. The results will help you decide how hot, cold, wet, or windy it might be!

Date:

Astronomy

Dec. 13, 2014 Rise Set
Actual Time 7:09 AM CST 5:29 PM CST
Civil Twilight 6:43 AM CST 5:55 PM CST
Nautical Twilight 6:13 AM CST 6:24 PM CST
Astronomical Twilight 5:44 AM CST 6:53 PM CST
Moon No Moon Rise 11:57 AM CST (12/13)
Length of Visible Light 11h 12m
Length of Day
10h 20m
Waning Gibbous, 57% of the Moon is Illuminated
Dec 13
Waning Gibbous
Dec 14
Last Quarter
Dec 21
New
Dec 28
First Quarter
Jan 4
Full

Hourly Weather History & Observations

Time (CST) Temp. Dew Point Humidity Pressure Visibility Wind Dir Wind Speed Gust Speed Precip Events Conditions
12:53 AM 60.1 °F 57.9 °F 93% 30.20 in 9.0 mi East 6.9 mph - N/A   Clear
1:53 AM 60.1 °F 59.0 °F 96% 30.19 in 8.0 mi ENE 5.8 mph - N/A   Clear
2:53 AM 57.9 °F 57.0 °F 97% 30.19 in 6.0 mi ENE 4.6 mph - N/A   Clear
3:53 AM 55.0 °F 54.0 °F 96% 30.18 in 5.0 mi NE 3.5 mph - N/A   Clear
4:53 AM 55.9 °F 55.0 °F 97% 30.17 in 1.0 mi NE 3.5 mph - N/A   Clear
5:00 AM 55.0 °F 55.0 °F 100% 30.17 in 0.5 mi NE 4.6 mph - N/A Fog Fog
5:09 AM 55.0 °F 54.0 °F 96% 30.18 in 0.2 mi NE 4.6 mph - N/A Fog Fog
5:33 AM 55.0 °F 54.0 °F 96% 30.18 in 1.2 mi ENE 5.8 mph - N/A   Scattered Clouds
5:39 AM 55.9 °F 55.0 °F 97% 30.18 in 3.0 mi ENE 5.8 mph - N/A   Scattered Clouds
5:53 AM 57.0 °F 55.9 °F 96% 30.18 in 3.0 mi ENE 5.8 mph - N/A   Clear
6:03 AM 57.0 °F 55.9 °F 96% 30.18 in 2.0 mi ENE 4.6 mph - N/A   Partly Cloudy
6:10 AM 54.0 °F 54.0 °F 100% 30.19 in 1.8 mi NE 4.6 mph - N/A   Partly Cloudy
6:24 AM 55.9 °F 55.0 °F 97% 30.19 in 2.0 mi ENE 6.9 mph - N/A   Mostly Cloudy
6:28 AM 55.9 °F 55.0 °F 97% 30.19 in 3.0 mi ENE 5.8 mph - N/A   Mostly Cloudy
6:53 AM 57.9 °F 57.0 °F 97% 30.20 in 5.0 mi ENE 6.9 mph - N/A   Mostly Cloudy
7:24 AM 55.9 °F 55.0 °F 97% 30.20 in 2.5 mi NE 6.9 mph - N/A   Clear
8:15 AM 63.0 °F 62.1 °F 97% 30.20 in 5.0 mi East 4.6 mph - N/A   Mostly Cloudy
8:53 AM 66.0 °F 63.0 °F 90% 30.22 in 7.0 mi East 6.9 mph - N/A   Clear
9:53 AM 70.0 °F 63.0 °F 78% 30.22 in 10.0 mi ESE 5.8 mph - N/A   Clear
10:53 AM 73.0 °F 60.1 °F 64% 30.21 in 10.0 mi SE 9.2 mph - N/A   Partly Cloudy
11:53 AM 73.9 °F 60.1 °F 62% 30.19 in 10.0 mi SSE 8.1 mph - N/A   Mostly Cloudy
12:53 PM 73.0 °F 60.1 °F 64% 30.15 in 10.0 mi SE 8.1 mph - N/A   Clear
1:53 PM 73.4 °F 60.8 °F 65% 30.12 in 10.0 mi SSE 6.9 mph - N/A   Clear
2:53 PM 73.0 °F 60.1 °F 64% 30.11 in 10.0 mi SSE 9.2 mph - N/A   Clear
3:53 PM 73.0 °F 60.1 °F 64% 30.11 in 10.0 mi SE 10.4 mph - N/A   Clear
4:53 PM 71.1 °F 62.1 °F 73% 30.11 in 10.0 mi ESE 11.5 mph - N/A   Clear
5:53 PM 66.9 °F 63.0 °F 87% 30.11 in 10.0 mi East 8.1 mph - N/A   Mostly Cloudy
6:53 PM 66.0 °F 63.0 °F 90% 30.11 in 10.0 mi East 10.4 mph - N/A   Mostly Cloudy
7:53 PM 64.9 °F 63.0 °F 93% 30.12 in 10.0 mi East 10.4 mph 21.9 mph N/A   Scattered Clouds
8:53 PM 64.0 °F 63.0 °F 96% 30.11 in 10.0 mi ESE 10.4 mph - N/A   Clear
9:53 PM 64.0 °F 63.0 °F 96% 30.10 in 10.0 mi East 6.9 mph - N/A   Clear
10:53 PM 64.0 °F 63.0 °F 96% 30.10 in 10.0 mi ESE 6.9 mph - N/A   Mostly Cloudy
11:53 PM 66.0 °F 63.0 °F 90% 30.07 in 10.0 mi SE 12.7 mph 20.7 mph N/A   Scattered Clouds